Create Custom Reports and Graphics: Custom Report

North/Central Map

Map

15 Minute Data

South County Map

Map

15 Minute Data

Northern Sonoma County Latest

16 Stations

15 Minute Data | America/Los_Angeles
as of 1/28/22 6:18 PM PST
Station Date Time Temp (°F) RH (%) Dew Pt (°F) Wind Spd (mph) Wind Dir (°) Wind Gust (mph) Latest Rain (In) Daily Rain (In) Daily Min Temp (°F) Daily Max Temp (°F)
Rockpile Lower (Cooley) 1/28/22 1800 57.0   1.9 38   6 31.5   2.7 2.1 E | 81 3.1   2.1 0.00 0.00 49.3   1.6 68.8   1.5
Rockpile Upper (Cooley) 1/28/22 1815 53.2   1.1 38   0 28.2   0.7 2.8 ESE | 109 9.2   0.7 0.00 0.00 49.5   1.6 64.9   0.8
Cloverdale-East (Ranch 83) 1/28/22 1815 47.4   1.7 72   6 39.0   0.6 0.6 WNW | 301 2.3   0.7 0.00 0.00 36.0   3.2 67.7   2.8
Cloverdale-SE (Ranch 38) 1/28/22 1815 55.7   2.7 53   12 38.8   4.2 0.9 E | 88 2.2   1.0 0.00 0.00 39.6   0.2 67.1   5.2
Geyserville-North (Hoffman) 1/28/22 1800 48.3   2.4 73   7 39.9   0.4 1.2 WNW | 287 2.1   0.3 0.00 0.00 30.0   3.0 64.0   4.2
Geyserville (Ranch 3) 1/28/22 1815 46.3   1.1 80   4 40.6   0.2 0.6 W | 279 1.5   0.8 0.00 0.00 30.9   3.0 63.7   4.9
Geyserville-East (Ranch 40) 1/28/22 1815 55.8   3.4 58   16 41.2   5.2 1.6 SSE | 166 3.0   3.1 0.00 0.00 39.2   1.2 63.0   10.9
Geyserville-South (Nervo Station) 1/28/22 1815 54.1   4.9 61   18 40.9   4.3 1.4 WNW | 284 2.7   0.7 0.00 0.00 34.1   0.2 63.7   6.1
Lytton (River Oaks) 1/28/22 1815 45.4   2.9 82   12 40.2   1.3 0.3 SSW | 206 1.2   1.0 0.00 0.00 27.5   0.6 67.9   4.0
Jimtown-North (Piccolo-R15) 1/28/22 1815 46.7   1.7 73   4 38.5   0.3 0.5 NE | 34 2.4   0.2 0.00 0.00 27.7   1.4 66.4   3.6
Jimtown-NE (Red Fan) 1/28/22 1815 47.9   2.6 78   7 41.4   0.0 0.5 N | 357 1.6   0.9 0.00 0.00 30.2   0.0 67.0   3.2
HWY 128/Chalk Hill Rd (Landslide) 1/28/22 1815 45.4   2.6 84   5 40.9   0.8 0.1 N | 5 1.1   1.3 0.00 0.00 28.0   0.0 68.7   1.3
N Chalk Hill Rd (Ranch 63) 1/28/22 1815 47.6   2.0 79   9 41.5   1.2 0.6 ESE | 112 1.8   1.8 0.00 0.00 28.0   0.2 64.7   3.1
Knights Valley (Bavarian Lion) 1/28/22 1815 46.4   1.6 79   2 40.3   0.9 3.4 SE | 145 6.0   2.3 0.00 0.00 28.8   0.3 65.8   6.6
Upper Dry Creek Valley 1/28/22 1815 45.6   1.2 85   8 41.5   1.3 1.5 NW | 307 2.1   0.8 0.00 0.00 32.1   0.8 64.5   4.2
Lower Dry Creek Valley 1/28/22 1815 45.7   2.0 87   5 42.1   0.5 0.5 NNW | 341 1.8   0.3 0.00 0.00 30.3   1.1 63.5   10.2
Max     57.0 87 42.1 3.4 - 9.2 0.00 0.00 49.5 68.8
Avg     49.3 70 39.2 1.2 - 2.8 0.00 - - -
Min     45.4 38 28.2 0.1 - 1.1 0.00 0.00 27.5 63.0

Central Sonoma County Latest

29 Stations

15 Minute Data | America/Los_Angeles
as of 1/28/22 6:18 PM PST
Station Date Time Temp (°F) RH (%) Dew Pt (°F) Wind Spd (mph) Wind Dir (°) Wind Gust (mph) Latest Rain (In) Daily Rain (In) Daily Min Temp (°F) Daily Max Temp (°F)
Healdsburg-South (Sodini) 1/28/22 1815 46.7   6.2 82   19 41.6   0.8 0.0 N | 0 0.0   3.1 0.00 0.00 29.9   0.8 66.4   2.1
Windsor-NW (Ranch 8) 1/28/22 1815 52.9   4.9 74   18 44.9   2.7 0.9 NW | 313 2.0   2.7 0.00 0.00 34.8   0.7 69.6   1.2
Windsor-East (Ranch 16) 1/28/22 1815 47.2   3.5 82   11 42.0   0.2 0.0 N | 0 0.0   4.1 0.00 0.00 30.5   0.4 67.6   0.1
Mark West-North (Ranch 14) 1/28/22 1815 50.7   4.9 73   18 42.5   2.6 0.8 NE | 51 1.8   0.5 0.00 0.00 31.5   0.5 66.4   3.3
Windsor-SE (Silk Rd) 1/28/22 1815 46.7   5.7 83   17 41.7   0.5 0.4 SSE | 159 2.0   2.0 0.00 0.00 29.5   0.3 66.6   0.7
Fulton-NW (Ranch 5) 1/28/22 1815 49.5   4.5 77   16 42.6   1.8 1.0 NNE | 22 1.6   0.8 0.00 0.00 29.8   0.2 63.9   1.5
Windsor-South (Laughlin Rd) 1/28/22 1815 52.6   3.5 - - - - - 0.00 0.00 31.2   0.7 64.6   2.4
Fulton-SE (Barnes Rd) 1/28/22 1815 50.0   5.7 74   14 42.2   0.1 1.2 ENE | 73 2.8   0.4 0.00 0.00 30.9   0.4 65.3   0.5
Fulton-SW (Ranch 21) 1/28/22 1815 52.1   1.4 63   2 39.7   0.3 0.7 SE | 128 2.0   0.3 0.00 0.00 30.4   0.0 64.5   2.0
Santa Rosa-NW (Goldfields) 1/28/22 1815 50.6   3.4 67   8 40.1   0.0 0.2 SE | 127 0.9   1.1 0.00 0.00 31.0   0.3 69.9   1.8
NW Santa Rosa (Piner Road) 1/28/22 1815 49.3   6.9 77   21 42.3   1.8 1.0 NE | 42 1.6   0.1 0.00 0.00 30.1   1.1 64.2   1.3
River Rd South (Denner Ranch) 1/28/22 1815 50.9   2.9 69   10 41.0   1.1 2.2 NNW | 342 3.9   0.7 - - 30.2   0.4 65.3   1.2
West Santa Rosa (Hawk's Roost) 1/28/22 1815 50.2   3.9 69   11 40.6   0.6 0.1 ENE | 67 1.5   0.5 0.00 0.00 30.2   0.6 66.6   0.9
Guerneville Rd (Prokopakis) 1/28/22 1815 49.7   7.7 79   28 43.6   4.0 - - - 0.00 0.00 30.8   0.4 67.0   1.0
Guerneville Rd West (Balletto) 1/28/22 1815 49.2   6.6 79   21 42.9   1.6 0.6 SSE | 160 1.9   1.8 0.00 0.00 30.6   0.5 64.1   1.8
Guerneville Rd East (Rich Ranch) 1/28/22 1815 50.7   4.2 70   13 41.2   1.3 - - - - - 30.1   0.1 65.5   0.6
Occidental Rd (Sebastopol) 1/28/22 1815 50.0   1.0 100   0 50.0   1.0 0.9 SSW | 204 1.5   2.6 0.00 0.00 - 84.8   3.3
Lower Westside Rd (Ranch 12) 1/28/22 1815 47.9   0.7 82   6 42.6   1.1 0.0 SSW | 192 0.8   0.2 0.00 0.00 31.0   0.1 67.8   3.8
Guerneville (Laughlin Rd) 1/28/22 1815 43.3   0.2 93   4 41.4   1.1 0.2 NNW | 337 1.0   1.0 0.00 0.00 29.6   3.9 66.2   0.5
Korbel (Winery) 1/28/22 1815 46.7   0.0 89   3 43.8   0.8 0.0 N | 0 0.0   0.0 0.00 0.00 32.3   2.4 66.3   2.3
Forestville (Shone Farms) 1/28/22 1815 50.3   6.9 74   16 42.2   0.0 1.4 SW | 216 2.6   0.8 0.00 0.00 32.8   1.8 65.3   4.0
Forestville-NE (Ranch 30) 1/28/22 1815 48.6   1.1 82   3 43.2   0.0 0.2 W | 274 1.1   0.3 0.00 0.00 30.7   1.7 65.4   6.4
Green Valley Vineyard 1/28/22 1815 48.1   2.1 81   8 42.7   0.5 4.0 WNW | 283 5.9   0.0 0.00 0.00 34.1   1.6 64.8   3.1
Graton-West (Dutton Ranch) 1/28/22 1815 46.5   1.4 100   0 46.5   1.4 0.3 S | 188 1.2   1.5 0.00 0.00 30.2   1.7 65.9   3.2
Graton-South (Mill Station Rd) 1/28/22 1815 47.7   2.1 80   0 42.0   2.0 0.8 SSW | 192 2.8   0.9 0.00 0.00 28.8   1.9 64.9   2.4
Occidental (Horseshoe Bend) 1/28/22 1815 52.3   4.0 61   11 39.2   1.1 - - - - - 42.8   2.7 64.0   2.3
Sexton Valley (Jacqueline's Blk) 1/28/22 1815 44.5   1.3 87   1 40.9   1.6 0.7 WSW | 252 1.7   0.4 0.00 0.00 28.8   1.1 64.0   4.5
Sebastopol Hills (Burnside Rd) 1/28/22 1815 53.0   2.2 56   1 37.8   2.4 0.0 N | 0 0.0   2.3 0.00 0.00 38.8   0.0 63.0   2.3
Seaview/Fort Ross (Hirsch) 1/28/22 1815 55.5   2.3 39   22 30.9   8.9 5.1 SE | 127 7.4   6.9 0.00 0.00 51.5   2.5 64.4   0.8
Max     55.5 100 50.0 5.1 - 7.4 0.00 0.00 51.5 84.8
Avg     49.4 77 41.9 0.9 - 1.9 0.00 - - -
Min     43.3 39 30.9 0.0 - 0.0 0.00 0.00 28.8 63.0

Southern Sonoma County Latest

16 Stations

15 Minute Data | America/Los_Angeles
as of 1/28/22 6:18 PM PST
Station Date Time Temp (°F) RH (%) Dew Pt (°F) Wind Spd (mph) Wind Dir (°) Wind Gust (mph) Latest Rain (In) Daily Rain (In) Daily Min Temp (°F) Daily Max Temp (°F)
Upper Rincon Valley 1/28/22 1815 49.8   0.7 61   10 37.0   3.3 1.6 NNE | 18 4.0   0.0 0.00 0.00 42.2   1.1 63.7   1.6
Lower Bennett Valley 1/28/22 1815 41.2   4.6 80   0 35.3   4.6 0.7 SSW | 208 2.1   0.5 0.00 0.00 28.0   1.4 66.1   0.6
Kenwood (Wildwood) 1/28/22 1800 52.6   3.3 58   18 38.4   3.7 0.2 SE | 138 5.0   5.0 0.00 0.00 28.5   0.8 66.8   3.4
Sonoma Valley (Bedrock) 1/28/22 1815 45.3   1.5 73   1 37.2   1.2 0.4 W | 280 2.1   0.0 0.00 0.01 29.0   0.2 66.1   0.1
Sonoma-West (Arnold) 1/28/22 1800 49.1   1.1 66   4 38.2   2.6 1.4 WNW | 301 2.8   0.9 0.00 0.00 30.3   0.2 66.4   0.4
Sonoma Valley HS 1/28/22 1815 50.1   0.7 71   3 41.0   1.7 0.1 NE | 47 0.7   0.7 0.00 0.00 31.0   0.1 65.5   1.2
Sonoma East (Bundschu01) 1/28/22 1815 46.3   1.6 73   1 38.0   1.8 2.0 N | 351 3.3   0.0 0.00 0.00 30.5   0.6 68.3   3.4
Schellville (Sasaki) 1/28/22 1815 47.3   1.6 76   1 40.0   1.2 0.0 N | 0 0.0   0.0 0.00 0.00 29.8   0.2 69.7   1.6
Sonoma-SE (Napoli) 1/28/22 1815 47.5   0.7 70   1 38.2   0.9 0.1 E | 88 2.1   2.7 0.00 0.01 31.5   0.3 71.0   4.9
Carneros (Ranch 71) 1/28/22 1815 55.0   0.0 55   1 39.3   0.4 1.6 NNE | 26 2.3   4.5 0.00 0.00 39.7   1.0 65.0   0.8
Carneros Upper (Ranch 81) 1/28/22 1815 56.4   0.9 46   5 35.7   1.8 2.0 SE | 140 4.0   2.0 - - 41.3   1.0 68.3   0.5
Carneros Lower (Ranch 81) 1/28/22 1815 44.3   1.3 81   4 38.9   0.1 1.9 N | 5 2.7   0.6 0.00 0.00 32.4   0.2 67.6   2.1
Rohnert Park-West (Stony Point) 1/28/22 1815 43.6   3.2 83   3 38.9   2.2 1.1 W | 264 2.5   0.6 0.00 0.00 29.9   1.5 63.6   1.1
Penngrove (Asellus) 1/28/22 1815 46.2   1.5 80   4 40.4   0.3 0.7 E | 84 2.8   1.3 0.00 0.00 31.9   1.5 63.9   0.1
Roger's Creek (Ranch 50) 1/28/22 1815 54.4   1.1 45   7 33.3   4.5 3.3 NE | 38 4.3   0.4 0.00 0.00 42.0   3.8 63.0   0.7
Petaluma (Ranch 10) 1/28/22 1815 45.9   0.8 81   2 40.3   0.2 1.5 ESE | 106 2.7   0.9 0.00 0.00 31.5   1.9 66.2   0.3
Max     56.4 83 41.0 3.3 - 5.0 0.00 0.01 42.2 71.0
Avg     48.4 69 38.1 1.1 - 2.7 0.00 - - -
Min     41.2 45 33.3 0.0 - 0.0 0.00 0.00 28.0 63.0

Latest Observations

Map

Hourly Data